Location: ??????????
(54.4061°N, 22.6114°E)
Time: 05:49:49
(UTC+00:00)

STARLINK-25 - Pass Details

Date: 23 October 2019
Orbit: 548 x 551 km, 53.0° (Epoch: 17 November)

Event Time Altitude Azimuth Distance (km) Brightness Sun altitude
Rises 17:37:03 0° 280° (W) 2,721 8.7 -21.4°
Reaches altitude 10° 17:39:19 10° 275° (W) 1,826 7.4 -21.7°
Maximum altitude 17:43:21 53° 199° (SSW) 678 4.0 -22.3°
Enters shadow 17:43:37 52° 183° (S) 687 3.9 -22.3°
